Left ArrowRight Arrow

44.89941, -97.11507

Hourly Observations for June 12, 2024

Temp ( °F °C ) Dew Point ( °F °C ) Humidity (%) Winds ( mph kmh ) Pressure ( in mb ) Visibility ( mi km ) Precip ( " mm )
12:53 am 00:53 Mostly Clear 64 17.8 51 10.6 63 63 SSE 7 11 29.79 1009 10 16 0.00 0.00
1:53 am 01:53 Partly Cloudy 64 17.8 51 10.6 63 63 SSE 5 7 29.77 1008 10 16 0.00 0.00
2:53 am 02:53 Clear 64 17.8 51 10.6 63 63 SSE 8 13 29.75 1008 10 16 0.00 0.00
3:53 am 03:53 Mostly Clear 64 17.8 51 10.6 63 63 SSE 9 15 29.74 1007 10 16 0.00 0.00
4:53 am 04:53 Clear 65 18.3 52 11.1 63 63 SSE 10 17 29.71 1006 10 16 0.00 0.00
5:07 am 05:07 Partly Cloudy with Nearby Thunderstorms 65 18.3 52 11.1 63 63 S 8 13 29.70 1006 10 16 0.01 0.13
5:22 am 05:22 Mostly Cloudy with Thunderstorms 65 18.3 55 12.8 70 70 SSW 9 15 29.71 1006 10 16 0.01 0.13
5:45 am 05:45 Mostly Cloudy with Nearby Thunderstorms 63 17.2 55 12.8 75 75 SSE 8 13 29.67 1005 10 16 0.04 1.02
5:53 am 05:53 Partly Cloudy with Nearby Thunderstorms 62 16.7 55 12.8 78 78 SSE 8 13 29.68 1005 10 16 0.04 1.02
6:03 am 06:03 Mostly Sunny 63 17.2 56 13.3 78 78 S 7 11 29.68 1005 10 16 0.00 0.00
6:20 am 06:20 Partly Cloudy with Thunderstorms 64 17.8 56 13.3 75 75 E 3 6 29.67 1005 10 16 0.01 0.13
6:41 am 06:41 Mostly Cloudy with Thunderstorms 67 19.4 60 15.6 79 79 E 12 19 29.66 1004 5 8 0.08 2.03
6:53 am 06:53 Mostly Cloudy with Thunderstorms 68 20 58 14.4 70 70 VRB 6 9 29.68 1005 10 16 0.08 2.03
7:06 am 07:06 Partly Cloudy with Nearby Thunderstorms 66 18.9 58 14.4 75 75 SSE 8 13 29.66 1004 10 16 0.00 0.00
7:24 am 07:24 Partly Cloudy 67 19.4 57 13.9 71 71 ESE 5 7 29.66 1004 10 16 0.00 0.00
7:53 am 07:53 Mostly Sunny 67 19.4 58 14.4 73 73 Calm 29.69 1005 10 16 0.00 0.00
8:53 am 08:53 Partly Cloudy 64 17.8 59 15 84 84 ESE 7 11 29.70 1006 10 16 0.01 0.13
9:14 am 09:14 Partly Cloudy with Nearby Thunderstorms 66 18.9 59 15 78 78 S 8 13 29.67 1005 10 16 0.00 0.00
9:31 am 09:31 Mostly Cloudy with Thunderstorms 66 18.9 60 15.6 81 81 SE 12 19 29.63 1003 10 16 0.01 0.25
9:49 am 09:49 Partly Cloudy 72 22 63 17 73 73 S 9 15 29.63 1003 10 16 0.02 0.51
9:53 am 09:53 Mostly Sunny 72 22.2 63 17.2 73 73 S 9 15 29.67 1005 10 16 0.02 0.51
10:53 am 10:53 Sunny 79 26.1 65 18.3 62 62 SSW 16 26 29.67 1005 10 16 0.00 0.00
11:53 am 11:53 Sunny 81 27.2 65 18.3 58 58 W 13 20 29.67 1005 10 16 0.00 0.00
12:53 pm 12:53 Sunny 81 27.2 64 17.8 57 57 WSW 18 30 29.68 1005 10 16 0.00 0.00
1:53 pm 13:53 Sunny 83 28.3 65 18.3 55 55 SW 13 20 29.65 1004 10 16 0.00 0.00
2:53 pm 14:53 Sunny 88 31.1 65 18.3 47 47 SW 21 33 29.65 1004 10 16 0.00 0.00
3:53 pm 15:53 Sunny 87 30.6 62 16.7 43 43 SW 22 35 29.66 1005 10 16 0.00 0.00
4:53 pm 16:53 Sunny 87 30.6 65 18.3 48 48 SW 16 26 29.66 1004 10 16 0.00 0.00
5:53 pm 17:53 Sunny 87 30.6 66 18.9 50 50 SSW 16 26 29.65 1004 10 16 0.00 0.00
6:53 pm 18:53 Sunny 86 30 65 18.3 50 50 SSW 12 19 29.64 1004 10 16 0.00 0.00
7:53 pm 19:53 Partly Cloudy 83 28.3 65 18.3 55 55 WSW 7 11 29.65 1004 10 16 0.01 0.13
8:53 pm 20:53 Sunny 80 26.7 65 18.3 60 60 W 6 9 29.67 1005 10 16 0.00 0.00
9:53 pm 21:53 Clear 74 23.3 59 15 60 60 NNW 6 9 29.70 1006 10 16 0.00 0.00
10:53 pm 22:53 Clear 72 22.2 57 13.9 59 59 NNW 3 6 29.72 1006 10 16 0.00 0.00
11:53 pm 23:53 Clear 66 18.9 59 15 78 78 N 5 7 29.72 1007 10 16 0.00 0.00

Powered by Vaisala Xweather